This is the latest recevied weather packets stored in our database for station/object KB4JHU-15. If no packets are shown the sender has not sent any weather packets the latest 10 day(s).
| Time | Temp. | Humidity | Pressure | Rain* | Wind** | Luminosity | Snow |
|---|---|---|---|---|---|---|---|
| 1788134010 | 31.11° C | 54% | - | 0 mm | - | - | - |
| 1788132209 | 32.22° C | 51% | - | 0 mm | - | - | - |
| 1788130408 | 32.78° C | 48% | - | 0 mm | - | - | - |
| 1788128607 | 32.78° C | 48% | - | 0 mm | - | - | - |
| 1788126806 | 32.22° C | 49% | - | 0 mm | - | - | - |
| 1788125005 | 32.78° C | 50% | - | 0 mm | - | - | - |
| 1788123204 | 33.33° C | 47% | - | 0 mm | - | - | - |
| 1788121403 | 32.22° C | 48% | - | 0 mm | - | - | - |
| 1788119602 | 33.33° C | 46% | - | 0 mm | - | - | - |
| 1788117801 | 32.78° C | 49% | - | 0 mm | - | - | - |
| 1788116000 | 32.78° C | 50% | - | 0 mm | - | - | - |
| 1788114199 | 32.78° C | 50% | - | 0 mm | - | - | - |
| 1788112398 | 31.67° C | 54% | - | 0 mm | - | - | - |
| 1788110597 | 32.22° C | 53% | - | 0 mm | - | - | - |
| 1788108796 | 31.67° C | 56% | - | 0 mm | - | - | - |
| 1788106995 | 31.11° C | 60% | - | 0 mm | - | - | - |
| 1788105194 | 30° C | 62% | - | 0 mm | - | - | - |
| 1788103393 | 28.33° C | 68% | - | 0 mm | - | - | - |
| 1788101592 | 28.89° C | 67% | - | 0 mm | - | - | - |
| 1788099791 | 28.33° C | 71% | - | 0 mm | - | - | - |
| 1788097990 | 27.78° C | 74% | - | 0 mm | - | - | - |
| 1788096189 | 26.11° C | 79% | - | 0 mm | - | - | - |
| 1788094388 | 24.44° C | 88% | - | 0 mm | - | - | - |
| 1788092587 | 22.22° C | 93% | - | 0 mm | - | - | - |
| 1788090786 | 21.11° C | 94% | - | 0 mm | - | - | - |
* Rain latest hour (hover to see other rain measurements)
** Current wind speed in m/s (hover to see current wind gust speed)